F1ZUI-13 Weather Reports


time (UTC)temp
C
wind
direction
speed
KPH
gust
KPH
rain 1hr
cm
rain 24hr
cm
rain mn
cm
humidity
%
barometer
mb
20260506134726 15 270 9.7 0.0 0.00 0.00 0.00 1015.9
20260506133712 16 270 9.7 0.0 0.00 0.00 0.00 1015.8
20260506132658 13 270 8.0 0.0 0.00 0.00 0.00 1015.7
20260506131645 12 270 4.8 0.0 0.00 0.00 0.00 1015.7
20260506130631 12 270 9.7 0.0 0.00 0.00 0.00 1015.5
20260506125617 11 270 16.1 0.0 0.00 0.00 0.00 1015.4
20260506124604 11 225 14.5 0.0 0.00 0.00 0.00 1015.4
20260506123550 12 270 14.5 0.0 0.00 0.00 0.00 1015.3
20260506122537 12 225 14.5 0.0 0.00 0.00 0.00 1015.3
20260506121523 12 225 12.9 0.0 0.00 0.00 0.00 1015.4
20260506120509 13 270 4.8 0.0 0.00 0.00 0.00 1015.4
20260506115456 12 270 6.4 0.0 0.00 0.00 0.00 1015.4
20260506114442 12 270 19.3 0.0 0.00 0.00 0.00 1015.3
20260506113428 12 225 12.9 0.0 0.00 0.00 0.00 1015.3
20260506112415 12 270 11.3 0.0 0.00 0.00 0.00 1015.4
20260506111401 12 225 9.7 0.0 0.00 0.00 0.00 1015.4
20260506110348 13 225 17.7 0.0 0.00 0.00 0.00 1015.2
20260506105334 13 225 12.9 0.0 0.00 0.00 0.00 1015.3
20260506104320 13 225 17.7 0.0 0.00 0.00 0.00 1015.2
20260506103307 13 270 9.7 0.0 0.00 0.00 0.00 1015.2
20260506102253 14 225 8.0 0.0 0.00 0.00 0.00 1015.2
20260506101239 14 225 12.9 0.0 0.00 0.00 0.00 1015.1
20260506100226 13 225 14.5 0.0 0.00 0.00 0.00 1015.2
20260506095212 13 225 16.1 0.0 0.00 0.00 0.00 1015.1
20260506094158 12 270 11.3 0.0 0.00 0.00 0.00 1015.1
20260506093145 14 270 16.1 0.0 0.00 0.00 0.00 1015.0
20260506092131 13 270 14.5 0.0 0.00 0.00 0.00 1014.8
20260506091118 13 225 12.9 0.0 0.00 0.00 0.00 1014.6
20260506090104 13 225 11.3 0.0 0.00 0.00 0.00 1014.8
20260506085050 13 225 20.9 0.0 0.00 0.00 0.00 1014.6
20260506084037 12 270 16.1 0.0 0.00 0.00 0.00 1014.6
20260506083023 13 270 11.3 0.0 0.00 0.00 0.00 1014.6
20260506082009 16 225 16.1 0.0 0.00 0.00 0.00 1014.5
20260506080956 15 225 12.9 0.0 0.00 0.00 0.00 1014.5
20260506072901 11 225 14.5 0.0 0.00 0.00 0.00 1014.2
20260506071848 10 225 16.1 0.0 0.00 0.00 0.00 1014.4
20260506070834 12 225 14.5 0.0 0.00 0.00 0.00 1014.3
20260506061726 7 270 16.1 0.0 0.00 0.00 0.00 1014.0
20260506060712 8 270 17.7 0.0 0.00 0.00 0.00 1013.9
20260506050551 7 270 16.1 0.0 0.00 0.00 0.00 1013.7
20260506044458 7 270 19.3 0.0 0.00 0.00 0.00 1013.5
20260506043445 7 270 14.5 0.0 0.00 0.00 0.00 1013.5
20260506042431 7 270 12.9 0.0 0.00 0.00 0.00 1013.5
20260506041418 7 225 12.9 0.0 0.00 0.00 0.00 1013.5
20260506040404 6 270 11.3 0.0 0.00 0.00 0.00 1013.5
20260506032647 7 270 11.3 0.0 0.00 0.00 0.00 1013.8
20260506031633 7 270 22.5 0.0 0.00 0.00 0.00 1013.7
20260506030619 7 225 11.3 0.0 0.00 0.00 0.00 1013.7
20260506025606 7 225 19.3 0.0 0.00 0.00 0.00 1013.8
20260506024552 7 225 17.7 0.0 0.00 0.00 0.00 1013.7
20260506023539 7 270 11.3 0.0 0.00 0.00 0.00 1013.7
20260506022525 7 225 20.9 0.0 0.00 0.00 0.00 1013.8
20260506021511 7 270 14.5 0.0 0.00 0.00 0.00 1013.7
20260506020458 7 270 12.9 0.0 0.00 0.00 0.00 1013.9
20260506015444 7 225 19.3 0.0 0.00 0.00 0.00 1013.8
20260506014430 7 225 16.1 0.0 0.00 0.00 0.00 1014.1
20260506013417 7 270 9.7 0.0 0.00 0.00 0.00 1014.2
20260506012403 7 225 17.7 0.0 0.00 0.00 0.00 1013.9
20260506011350 7 225 19.3 0.0 0.00 0.00 0.00 1014.2
20260506010336 7 270 9.7 0.0 0.00 0.00 0.00 1014.2
20260506005322 7 225 12.9 0.0 0.00 0.00 0.00 1014.3
20260506004309 7 225 9.7 0.0 0.00 0.00 0.00 1014.3
20260506003256 7 270 6.4 0.0 0.00 0.00 0.00 1014.6
20260506002241 7 225 3.2 0.0 0.00 0.00 0.00 1014.6
20260506001228 7 270 6.4 0.0 0.00 0.00 0.00 1014.8
20260506000214 7 0.0 0.0 0.00 0.00 0.00 1014.9
20260505235201 7 270 11.3 0.0 0.00 0.00 0.00 1014.8
20260505234147 7 270 11.3 0.0 0.00 0.00 0.00 1014.9
20260505233133 7 270 12.9 0.0 0.00 0.00 0.00 1015.0
20260505232120 7 225 9.7 0.0 0.00 0.00 0.00 1014.9
20260505231106 7 270 17.7 0.0 0.00 0.00 0.00 1014.9
20260505230052 7 270 12.9 0.0 0.00 0.00 0.00 1014.9
20260505225039 7 225 20.9 0.0 0.00 0.00 0.00 1014.7
20260505224025 7 270 9.7 0.0 0.00 0.00 0.00 1014.8
20260505222859 7 270 4.8 0.0 0.00 0.00 0.00 1015.0
20260505221846 7 270 12.9 0.0 0.00 0.00 0.00 1015.0
20260505220832 7 270 9.7 0.0 0.00 0.00 0.00 1015.1
20260505215819 8 270 6.4 0.0 0.00 0.00 0.00 1015.0
20260505214805 8 270 9.7 0.0 0.00 0.00 0.00 1015.1
20260505213751 8 270 14.5 0.0 0.00 0.00 0.00 1015.0
20260505212738 8 225 12.9 0.0 0.00 0.00 0.00 1015.0
20260505211724 8 270 14.5 0.0 0.00 0.00 0.00 1015.2
20260505210711 8 270 12.9 0.0 0.00 0.00 0.00 1015.3
20260505205657 8 270 14.5 0.0 0.00 0.00 0.00 1015.2
20260505204643 8 270 19.3 0.0 0.00 0.00 0.00 1015.2
20260505203630 8 270 9.7 0.0 0.00 0.00 0.00 1015.2
20260505202616 8 270 8.0 0.0 0.00 0.00 0.00 1015.1
20260505201602 8 270 4.8 0.0 0.00 0.00 0.00 1015.0
20260505200549 8 270 11.3 0.0 0.00 0.00 0.00 1014.8
20260505195535 8 270 9.7 0.0 0.00 0.00 0.00 1014.9
20260505194521 8 270 12.9 0.0 0.00 0.00 0.00 1014.9
20260505193508 8 270 14.5 0.0 0.00 0.00 0.00 1014.8
20260505192454 8 270 17.7 0.0 0.00 0.00 0.00 1014.6
20260505191441 8 270 8.0 0.0 0.00 0.00 0.00 1014.6
20260505190427 8 225 12.9 0.0 0.00 0.00 0.00 1014.5
20260505185413 9 225 16.1 0.0 0.00 0.00 0.00 1014.5
20260505184400 9 270 19.3 0.0 0.00 0.00 0.00 1014.5
20260505183346 10 270 9.7 0.0 0.00 0.00 0.00 1014.6
20260505182332 10 225 6.4 0.0 0.00 0.00 0.00 1014.6
20260505181319 11 225 8.0 0.0 0.00 0.00 0.00 1014.6
20260505180305 11 225 6.4 0.0 0.00 0.00 0.00 1014.6
20260505175252 11 315 3.2 0.0 0.00 0.00 0.00 1014.7
20260505174238 11 270 8.0 0.0 0.00 0.00 0.00 1014.7
20260505173224 11 270 6.4 0.0 0.00 0.00 0.00 1014.6
20260505172211 11 270 11.3 0.0 0.00 0.00 0.00 1014.6
20260505171157 12 270 6.4 0.0 0.00 0.00 0.00 1014.6
20260505170143 12 0.0 0.0 0.00 0.00 0.00 1014.8
20260505165130 13 225 3.2 0.0 0.00 0.00 0.00 1014.8
20260505164116 14 0.0 0.0 0.00 0.00 0.00 1014.8
20260505163102 14 0.0 0.0 0.00 0.00 0.00 1014.8
20260505162049 15 0.0 0.0 0.00 0.00 0.00 1014.8
20260505161035 14 0 4.8 0.0 0.00 0.00 0.00 1014.7
20260505152941 12 0.0 0.0 0.00 0.00 0.00 1015.0
20260505151927 12 225 3.2 0.0 0.00 0.00 0.00 1014.9
20260505150913 11 315 14.5 0.0 0.00 0.00 0.00 1015.0